Weather in Vakhtang Gorgasali Street

Georgia     41°38′42″N   41°37′55″E
temp.,
°C
wind,
m/s
gust,
m/s
humid.,
%
clouds,
%
prec.,
mm/h
press.,
hPa
HPBL,
m
6 march, sat
sat601:00+7ese33520 0.0 102553
04:00+7ese33480 0.0 102657
07:00+7ese33460 0.0 102566
10:00+10ese23480 0.0 1023110
13:00+15nw11390 0.0 1021258
16:00+15nnw114224 0.0 1020335
19:00+12wsw3350100 0.0 102028
22:00+9ssw4659100 0.0 1021115
7 march, sun
sun701:00+9ssw3457100 0.0 102172
04:00+8ssw3474100 0.4 1021123
07:00+6sw3596100 12.4 1021371
10:00+5w4595100 27.6 1022514
13:00+3sw4596100 9.4 1023377
16:00+3sw3592100 11.7 1024463
19:00+3wsw3490100 0.4 1025396
22:00+3w2281100 0.7 1026462
8 march, mon
mon801:00+3ne2281100 0.3 1025448
04:00+1ene238098 0.3 1023195
07:00+1e227476 0.0 1022129
10:00+3nw007076 0.0 1021328
13:00+5nw227045 0.0 1018633
16:00+4wnw227173 0.0 1017540
19:00+3s117279 0.0 1017399
22:00+2s117648 0.0 1019299
9 march, tue
tue901:00+2se227563 0.0 102086
04:00+2ese127270 0.0 102078
07:00+2ese226918 0.0 102183
10:00+6n016324 0.0 1021275
13:00+8nw22560 0.0 1020679
16:00+8nw225733 0.0 1020437
19:00+5wnw1167100 0.0 1021142
22:00+4se0167100 0.0 1024184
10 march, wed
wed1001:00+5ene1166100 0.0 1024151
04:00+4e1270100 0.0 1024104
07:00+3e227368 0.0 1024118
10:00+6nne226374 0.0 1022249
13:00+8n2359100 0.0 1020574
16:00+8nnw2161100 0.1 1018646
19:00+5nw1278100 0.8 1018490
22:00+3n3395100 2.4 1019288